User: anonymous   Login
Location: Unspecified
(0.0000°N, 0.0000°E)
Time: 09:18:18
(UTC+00:00)
Language:

Tubsat - Orbit

View from above orbital plane
View from above orbital plane
View from above satellite
View from above satellite

Ground track
Ground track

The orbit data is extracted from the following two-line orbital elements,

1 25757U 99029B   17086.94297085 +.00000059 +00000-0 +26163-4 0  9997
2 25757 098.4170 358.7973 0013838 183.6814 176.4280 14.51354365944689
Epoch (UTC): 27 March 2017 22:37:52
Eccentricity: 0.0013838
inclination: 98.4170°
perigee height: 711 km
apogee height: 731 km
right ascension of ascending node: 358.7973°
argument of perigee: 183.6814°
revolutions per day: 14.51354365
mean anomaly at epoch: 176.4280°
orbit number at epoch: 94468

The dashed part of the orbit path shows where the satellite is in the earth's shadow,  

DLR